星链-31446 (STARLINK-31446 )

导读 | 豆包AI

STARLINK-31446是美国太空探索技术公司(SpaceX)星链计划的低轨通信卫星,于2024年3月24日发射入轨。它属于Starlink星座组网卫星,运行在近地轨道,核心任务是为全球提供高速宽带互联网接入服务,重点弥补偏远地区网络覆盖盲区。作为标准化量产卫星,它具备空间碎片自动规避能力,助力星链巨型星座持续扩展,提升全球通信网络的覆盖范围与稳定性。

Basic Information
目录编号:
59315
目录名称:
STARLINK-31446
国际标识:
2024-056V
轨道中心:
EARTH
卫星名称:
星链-31446
卫星全名:
星链-31446 (STARLINK-31446 )
卫星状态:
在轨 (已飞行768 天)
发射日期:
2024-03-24 UTC
国别 :
美国 (US)
星等 :
--
Orbit Information
数据来源 国际轨道数据 AOE轨道数据
星历时间 2026-04-30T20:22:25+0800
12小时前
查看轨道信息
2026-05-01T02:00:00+0800
7小时前
查看轨道信息
半长轴 6861.181km 6861.178km
偏心率 0.0001175 0.0001306
轨道倾角 43.001° 43.002°
近地点辐角 273.737° 262.141°
升交点赤经 297.746° 296.425°
平近点角 86.334° 308.651°
近地点 482.237km 482.144km
远地点 483.851km 483.938km
周期 94.267分钟 94.267分钟
每日圈数 15.275819 15.275829
Detailed Information
固有亮度:
5
最大亮度:
0.3
卫星平台:
Starlink v2.0 mini
覆盖范围:
全球
运营商:
太空探索技术公司
运营商所在国:
美国
制造商(研发单位):
太空探索技术公司
制造商所在国:
美国
使用方式:
暂无
Satellite Introduction
星链(Starlink)计划是由太空探索技术公司(SpaceX)提出的一个巨型低轨卫星互联网星座项目,计划在2019年至2024年间在太空搭建由约1.2万颗卫星组成的“星链”网络,其中1584颗将部署在地球上空550千米处的近地轨道,并从2020年开始工作。该卫星仍在工作。
2D Orbit Map
3D Orbit Map
Orbit Altitude Analysis Chart
Orbit Inclination Analysis Chart
Orbit Comprehensive Analysis Chart
View Comprehensive Chart